COSMOS 2251 DEB, 40238

Orbit data source: Space-Track

COSMOS 2251 DEB, 40238 is space debris in LEO originally from a launch on Wed, 16 Jun 1993 UTC launched from the Plesetsk Missile And Space Complex (PKMTR). The debris from Iridium 33, an American commercial communications satellite, has been tracked extensively since its accidental collision with the defunct Russian satellite Cosmos 2251 in 2009. This event, occurring at high speed in low Earth orbit (LEO), generated thousands of pieces of space debris, significantly increasing the risk of further collisions. The Iridium 33 debris cloud has impacted space traffic management and orbital debris mitigation strategies, making it a subject of ongoing study in space situational awareness.

Loading next visibility...
Identifier
40238, 1993-036BVT
Orbit
LEO
Country
Flag of CISCIS
Related business
Manufacturer
Unknown
Mission
Spacecraft
Bus & Motor
Unknown
Mass
Unknown
Launch date (UTC)
1993-06-16 (33 years ago)
Launch vehicle
Unknown
Launch site
Plesetsk Missile And Space Complex (PKMTR)
Object type
Payload
Rocket body
Debris
Shape & HBR
Unknown shape, 0.1 m
Radar Cross Section
Small (<0.1 m²)

Expand to show TLE details & history
Last TLE update: 2 weeks ago

TLE from 2 weeks ago
0 COSMOS 2251 DEB
1 40238U 93036BVT 26161.64048661  .00000957  00000-0  99117-3 0  9990
2 40238  73.9886 147.1881 0546223  84.7874 281.5284 13.25688468564208
Epoch: 2026-06-10T15:22Z
TLE epoch observation values (Epoch: 2026-06-10T15:22:18.043Z)
Latitude
0.00005°
Longitude
17.6172°
Altitude
1,105.135 km
Speed
7.329 km/s
True Right ascension
09h 48m 45s
True Declination
0° 00' 00"
Sunlit
Object was in daylight at epoch
Visualization orbit readout
Latitude
Unknown
Longitude
Unknown
Altitude
Unknown
Speed
Unknown
Apparent Right ascension
Unknown
Apparent Declination
Unknown
Sunlit
N/A
Visualization observer readout
Local Sidereal Time
21:37:25
Azimuth
Unknown
Elevation
Unknown
Doppler factor
Unknown
Orbital elements
Apogee altitude
1,572.606 km
Perigee altitude
749.017 km
Semi-major axis
7,538.948 km
Eccentricity
0.05462
Inclination
73.9886°
RAAN
147.1881°
Arg. of periapsis
84.7874°
True anomaly
275.3228°
Mean anomaly
281.5284°
Eccentric anomaly
278.43261°
Mean motion
3.31571 °/min
Orbital period
108.57 mins
BSTAR
0.00099117
Loading maneuver chart data...
Computing Atmospheric mass density...

Documentation

Showing up to 5 results
|